GW3424 Weather Reports


Display with metric or nautical units.
time (UTC)temp
F
wind
direction
speed
MPH
gust
MPH
rain 1hr
in
rain 24hr
in
rain mn
in
humidity
%
barometer
mb
20260503213542 95 360 7.0 19.0 0.00 0.00 0.00 13 971.1
20260503213045 95 360 2.0 17.0 0.00 0.00 0.00 13 971.2
20260503212542 96 360 12.0 17.0 0.00 0.00 0.00 13 971.3
20260503212042 96 360 9.0 15.0 0.00 0.00 0.00 12 971.4
20260503211548 97 360 8.0 18.0 0.00 0.00 0.00 12 971.5
20260503211043 97 360 7.0 14.0 0.00 0.00 0.00 12 971.7
20260503210543 97 360 2.0 9.0 0.00 0.00 0.00 13 971.6
20260503210042 96 74 2.0 11.0 0.00 0.00 0.00 14 971.8
20260503205542 95 360 3.0 13.0 0.00 0.00 0.00 14 971.8
20260503205041 95 360 8.0 17.0 0.00 0.00 0.00 13 972.0
20260503204552 94 360 12.0 20.0 0.00 0.00 0.00 14 972.0
20260503204041 94 88 12.0 20.0 0.00 0.00 0.00 14 972.1
20260503203541 94 130 4.0 11.0 0.00 0.00 0.00 14 972.3
20260503203047 95 360 3.0 12.0 0.00 0.00 0.00 14 972.3
20260503202543 95 360 5.0 13.0 0.00 0.00 0.00 14 972.3
20260503202042 95 224 7.0 20.0 0.00 0.00 0.00 14 972.6
20260503201542 95 167 13.0 20.0 0.00 0.00 0.00 14 972.6
20260503201043 95 177 8.0 15.0 0.00 0.00 0.00 14 972.6
20260503200542 94 171 8.0 14.0 0.00 0.00 0.00 15 972.7
20260503200042 94 188 5.0 14.0 0.00 0.00 0.00 15 972.9
20260503195542 94 144 5.0 11.0 0.00 0.00 0.00 15 972.8
20260503195041 94 360 3.0 16.0 0.00 0.00 0.00 15 972.9
20260503194545 92 360 2.0 21.0 0.00 0.00 0.00 16 973.0
20260503194042 93 360 11.0 21.0 0.00 0.00 0.00 16 973.2
20260503193542 93 360 6.0 14.0 0.00 0.00 0.00 16 973.1
20260503193052 92 360 2.0 18.0 0.00 0.00 0.00 17 973.1
20260503192541 92 360 11.0 18.0 0.00 0.00 0.00 17 973.6
20260503192042 92 360 6.0 20.0 0.00 0.00 0.00 17 973.6
20260503191544 91 360 10.0 20.0 0.00 0.00 0.00 17 973.6
20260503191042 91 360 9.0 18.0 0.00 0.00 0.00 18 973.7
20260503190541 92 360 4.0 15.0 0.00 0.00 0.00 18 973.7
20260503190056 91 360 5.0 17.0 0.00 0.00 0.00 18 973.8
20260503185541 91 360 11.0 18.0 0.00 0.00 0.00 18 974.0
20260503185045 91 360 10.0 18.0 0.00 0.00 0.00 19 973.9
20260503184542 90 360 7.0 15.0 0.00 0.00 0.00 21 974.1
20260503184042 89 360 8.0 17.0 0.00 0.00 0.00 21 974.1
20260503183542 89 360 7.0 19.0 0.00 0.00 0.00 21 974.2
20260503183055 88 360 12.0 19.0 0.00 0.00 0.00 22 974.2
20260503182541 88 360 10.0 16.0 0.00 0.00 0.00 23 974.3
20260503182041 88 360 12.0 16.0 0.00 0.00 0.00 23 974.4
20260503181542 88 360 11.0 16.0 0.00 0.00 0.00 24 974.5
20260503181043 88 360 8.0 15.0 0.00 0.00 0.00 25 974.7
20260503180543 87 360 9.0 17.0 0.00 0.00 0.00 26 974.9
20260503180052 86 360 5.0 14.0 0.00 0.00 0.00 27 974.9
20260503175543 86 360 6.0 18.0 0.00 0.00 0.00 27 975.0
20260503175041 86 360 9.0 17.0 0.00 0.00 0.00 28 974.9
20260503174542 86 360 9.0 18.0 0.00 0.00 0.00 27 975.0
20260503174045 86 360 12.0 19.0 0.00 0.00 0.00 27 975.0
20260503173546 85 360 11.0 20.0 0.00 0.00 0.00 28 975.1
20260503173104 85 360 14.0 20.0 0.00 0.00 0.00 28 975.2
20260503172541 85 360 13.0 17.0 0.00 0.00 0.00 28 975.0
20260503172045 85 360 12.0 16.0 0.00 0.00 0.00 28 975.2
20260503171549 85 360 10.0 17.0 0.00 0.00 0.00 28 975.2
20260503171042 85 360 12.0 19.0 0.00 0.00 0.00 28 975.3
20260503170542 85 360 11.0 17.0 0.00 0.00 0.00 29 975.3
20260503150541 78 360 11.0 18.0 0.00 0.00 0.00 34 975.1
20260503131042 70 360 7.0 10.0 0.00 0.00 0.00 41 974.3
20260503130541 70 360 6.0 10.0 0.00 0.00 0.00 40 974.2
20260503110543 74 360 3.0 9.0 0.00 0.00 0.00 30 974.0
20260503081546 75 360 4.0 6.0 0.00 0.00 0.00 25 974.5
20260503081041 74 360 4.0 6.0 0.00 0.00 0.00 24 974.4
20260503080548 73 360 3.0 5.0 0.00 0.00 0.00 27 974.3
20260503072542 79 360 1.0 4.0 0.00 0.00 0.00 20 974.5
20260503072042 79 360 2.0 4.0 0.00 0.00 0.00 20 974.6
20260503071548 78 360 2.0 5.0 0.00 0.00 0.00 20 974.5
20260503071042 78 360 1.0 8.0 0.00 0.00 0.00 20 974.4
20260503070541 76 360 3.0 8.0 0.00 0.00 0.00 21 974.6
20260503055041 80 360 0.0 0.0 0.00 0.00 0.00 31 973.8
20260503054543 80 360 0.0 0.0 0.00 0.00 0.00 33 973.8
20260503054041 80 360 0.0 0.0 0.00 0.00 0.00 32 974.0
20260503053541 80 360 0.0 0.0 0.00 0.00 0.00 26 973.9
20260503053044 80 360 0.0 3.0 0.00 0.00 0.00 27 973.9
20260503052545 81 360 1.0 3.0 0.00 0.00 0.00 23 973.9
20260503052041 81 360 0.0 2.0 0.00 0.00 0.00 22 973.8
20260503051542 81 360 0.0 2.0 0.00 0.00 0.00 20 973.8
20260503051041 81 360 1.0 2.0 0.00 0.00 0.00 21 973.9
20260503050545 81 360 1.0 2.0 0.00 0.00 0.00 24 973.9
20260503050041 82 360 0.0 0.0 0.00 0.00 0.00 24 973.9
20260503045542 82 360 0.0 0.0 0.00 0.00 0.00 26 973.9
20260503045041 82 360 0.0 0.0 0.00 0.00 0.00 26 973.8
20260503044541 83 360 0.0 0.0 0.00 0.00 0.00 26 973.9
20260503044043 83 360 0.0 1.0 0.00 0.00 0.00 26 973.9
20260503043541 84 360 0.0 1.0 0.00 0.00 0.00 27 973.9
20260503043042 84 360 0.0 1.0 0.00 0.00 0.00 27 973.9
20260503042541 84 360 0.0 2.0 0.00 0.00 0.00 26 973.6
20260503042042 84 360 1.0 3.0 0.00 0.00 0.00 24 973.6
20260503041542 84 360 1.0 2.0 0.00 0.00 0.00 24 973.5
20260503041041 84 360 0.0 1.0 0.00 0.00 0.00 17 973.7
20260503040541 84 360 0.0 2.0 0.00 0.00 0.00 16 973.5
20260503040041 84 360 0.0 3.0 0.00 0.00 0.00 16 973.4
20260503035541 84 360 1.0 4.0 0.00 0.00 0.00 16 973.3
20260503035042 85 360 2.0 5.0 0.00 0.00 0.00 16 973.2
20260503034542 85 360 3.0 5.0 0.00 0.00 0.00 16 973.2
20260503034042 85 360 0.0 0.0 0.00 0.00 0.00 16 973.3
20260503033545 85 360 0.0 0.0 0.00 0.00 0.00 16 973.1
20260503033046 85 360 0.0 2.0 0.00 0.00 0.00 17 973.0
20260503032541 85 360 0.0 2.0 0.00 0.00 0.00 17 973.0
20260503032041 85 360 1.0 2.0 0.00 0.00 0.00 17 972.9
20260503031542 85 360 1.0 3.0 0.00 0.00 0.00 17 972.8
20260503031041 85 360 1.0 4.0 0.00 0.00 0.00 17 972.9
20260503030542 85 360 2.0 4.0 0.00 0.00 0.00 17 972.7
20260503030043 85 360 1.0 2.0 0.00 0.00 0.00 18 972.7
20260503025541 86 360 1.0 3.0 0.00 0.00 0.00 18 972.7
20260503025041 86 360 1.0 3.0 0.00 0.00 0.00 18 972.7
20260503024542 86 360 1.0 3.0 0.00 0.00 0.00 18 972.7
20260503024042 86 360 1.0 2.0 0.00 0.00 0.00 18 972.7
20260503023542 86 360 1.0 3.0 0.00 0.00 0.00 18 972.7
20260503023042 87 360 2.0 3.0 0.00 0.00 0.00 18 972.6
20260503022545 87 360 2.0 4.0 0.00 0.00 0.00 17 972.6
20260503022041 87 360 3.0 4.0 0.00 0.00 0.00 17 972.6
20260503021547 88 360 2.0 4.0 0.00 0.00 0.00 17 972.7
20260503021041 88 360 2.0 4.0 0.00 0.00 0.00 17 972.6
20260503020544 89 360 2.0 5.0 0.00 0.00 0.00 17 972.5
20260503020050 89 360 2.0 9.0 0.00 0.00 0.00 17 972.5
20260503015542 89 360 5.0 9.0 0.00 0.00 0.00 16 972.5
20260503015045 89 360 4.0 6.0 0.00 0.00 0.00 16 972.5
20260503014607 89 360 4.0 6.0 0.00 0.00 0.00 16 972.6
20260503014041 89 360 4.0 6.0 0.00 0.00 0.00 16 972.6
20260503013542 89 360 4.0 8.0 0.00 0.00 0.00 16 972.6
20260503013042 90 360 4.0 8.0 0.00 0.00 0.00 16 972.7
20260503012545 90 360 3.0 9.0 0.00 0.00 0.00 16 972.8
20260503012043 90 360 6.0 10.0 0.00 0.00 0.00 16 972.9
20260503011548 90 360 6.0 10.0 0.00 0.00 0.00 16 972.8
20260503011041 91 360 4.0 11.0 0.00 0.00 0.00 15 972.8
20260503010541 91 360 7.0 11.0 0.00 0.00 0.00 15 972.8
20260503010051 91 360 5.0 10.0 0.00 0.00 0.00 15 972.9
20260503005541 91 360 6.0 11.0 0.00 0.00 0.00 15 972.9
20260503005042 91 360 6.0 11.0 0.00 0.00 0.00 15 972.9
20260503004555 91 360 4.0 11.0 0.00 0.00 0.00 15 972.9
20260503004041 91 10 6.0 13.0 0.00 0.00 0.00 15 972.9
20260503003542 91 360 7.0 13.0 0.00 0.00 0.00 15 973.0
20260503003042 91 10 9.0 13.0 0.00 0.00 0.00 15 972.9
20260503002541 91 40 3.0 12.0 0.00 0.00 0.00 15 972.9
20260503002042 91 360 5.0 15.0 0.00 0.00 0.00 15 972.9
20260503001541 91 360 4.0 13.0 0.00 0.00 0.00 15 973.1
20260503001041 91 360 9.0 13.0 0.00 0.00 0.00 15 973.1
20260503000542 91 360 9.0 14.0 0.00 0.00 0.00 15 973.1
20260503000042 91 360 11.0 16.0 0.00 0.00 0.00 15 973.0
20260502235541 92 360 7.0 16.0 0.00 0.00 0.00 14 972.9
20260502235041 92 360 7.0 15.0 0.00 0.00 0.00 14 973.1
20260502234545 92 360 8.0 12.0 0.00 0.00 0.00 15 973.0
20260502234043 92 360 5.0 14.0 0.00 0.00 0.00 15 973.0
20260502233542 92 360 8.0 12.0 0.00 0.00 0.00 15 973.1
20260502233045 91 360 4.0 12.0 0.00 0.00 0.00 15 973.0
20260502232541 91 360 7.0 12.0 0.00 0.00 0.00 15 972.9
20260502232041 91 360 5.0 17.0 0.00 0.00 0.00 15 973.0
20260502231542 91 360 8.0 17.0 0.00 0.00 0.00 15 973.0
20260502231042 92 360 7.0 16.0 0.00 0.00 0.00 15 973.1
20260502230542 92 360 10.0 16.0 0.00 0.00 0.00 14 973.3
20260502230042 93 360 6.0 13.0 0.00 0.00 0.00 14 973.4
20260502225541 93 360 5.0 13.0 0.00 0.00 0.00 14 973.3
20260502225041 92 360 7.0 13.0 0.00 0.00 0.00 15 973.2
20260502224544 92 360 3.0 13.0 0.00 0.00 0.00 15 973.3
20260502224041 92 360 6.0 20.0 0.00 0.00 0.00 15 973.5
20260502223541 91 360 14.0 21.0 0.00 0.00 0.00 15 973.7
20260502223043 92 360 13.0 21.0 0.00 0.00 0.00 15 973.6
20260502222542 92 360 7.0 18.0 0.00 0.00 0.00 15 973.7
20260502222041 92 360 11.0 18.0 0.00 0.00 0.00 15 973.8
20260502221542 92 360 2.0 6.0 0.00 0.00 0.00 15 973.9
20260502221041 92 360 3.0 16.0 0.00 0.00 0.00 15 974.0
20260502220545 91 360 8.0 16.0 0.00 0.00 0.00 15 974.0
20260502220043 92 360 10.0 15.0 0.00 0.00 0.00 15 974.1
20260502215542 91 360 8.0 15.0 0.00 0.00 0.00 15 974.2
20260502215045 91 360 8.0 18.0 0.00 0.00 0.00 16 974.3
20260502214541 91 360 12.0 17.0 0.00 0.00 0.00 15 974.4
20260502214041 91 360 11.0 16.0 0.00 0.00 0.00 15 974.6